Time,TemperatureF,DewpointF,PressureIn,WindDirection,WindDirectionDegrees,WindSpeedMPH,WindSpeedGustMPH,Humidity,HourlyPrecipIn,Conditions,Clouds,dailyrainin,SoftwareType,DateUTC
2016-02-09 00:23:00,25.0,21.0,-100.00,WNW,287,2.0,5.0,84,-99.99,,,-99.99,,2016-02-09 07:23:00,
2016-02-09 00:33:00,25.0,21.0,-100.00,WNW,287,2.0,5.0,84,-99.99,,,-99.99,,2016-02-09 07:33:00,
2016-02-09 00:44:00,25.0,21.0,-100.00,WNW,287,2.0,5.0,84,-99.99,,,-99.99,,2016-02-09 07:44:00,
2016-02-09 00:51:00,23.0,20.0,-100.00,South,188,1.0,4.0,89,-99.99,,,-99.99,,2016-02-09 07:51:00,
2016-02-09 01:23:00,23.0,20.0,-100.00,South,188,1.0,4.0,89,-99.99,,,-99.99,,2016-02-09 08:23:00,
2016-02-09 01:44:00,23.0,20.0,-100.00,South,188,1.0,4.0,89,-99.99,,,-99.99,,2016-02-09 08:44:00,
2016-02-09 01:51:00,19.0,16.0,-100.00,SW,222,1.0,-999.0,87,-99.99,,,-99.99,,2016-02-09 08:51:00,
2016-02-09 02:23:00,19.0,16.0,-100.00,SW,222,1.0,5.0,87,-99.99,,,-99.99,,2016-02-09 09:23:00,
2016-02-09 02:44:00,19.0,16.0,-100.00,SW,222,1.0,5.0,87,-99.99,,,-99.99,,2016-02-09 09:44:00,
2016-02-09 02:51:00,21.0,19.0,-100.00,NNE,26,1.0,3.0,90,-99.99,,,-99.99,,2016-02-09 09:51:00,
2016-02-09 03:23:00,21.0,19.0,-100.00,NNE,26,1.0,3.0,90,-99.99,,,-99.99,,2016-02-09 10:23:00,
2016-02-09 03:43:00,21.0,19.0,-100.00,NNE,26,1.0,3.0,90,-99.99,,,-99.99,,2016-02-09 10:43:00,
2016-02-09 03:51:00,17.0,15.0,-100.00,West,275,2.0,3.0,93,-99.99,,,-99.99,,2016-02-09 10:51:00,
2016-02-09 04:23:00,17.0,15.0,-100.00,West,275,2.0,3.0,93,-99.99,,,-99.99,,2016-02-09 11:23:00,
2016-02-09 04:34:00,17.0,15.0,-100.00,West,275,2.0,3.0,93,-99.99,,,-99.99,,2016-02-09 11:34:00,
2016-02-09 04:45:00,17.0,15.0,-100.00,West,275,2.0,-999.0,93,-99.99,,,-99.99,,2016-02-09 11:45:00,
2016-02-09 04:51:00,17.0,15.0,-100.00,ENE,59,1.0,3.0,93,-99.99,,,-99.99,,2016-02-09 11:51:00,
2016-02-09 05:23:00,17.0,15.0,-100.00,ENE,59,1.0,3.0,93,-99.99,,,-99.99,,2016-02-09 12:23:00,
2016-02-09 05:33:00,17.0,15.0,-100.00,ENE,59,1.0,3.0,93,-99.99,,,-99.99,,2016-02-09 12:33:00,
2016-02-09 05:45:00,17.0,15.0,-100.00,ENE,59,1.0,3.0,93,-99.99,,,-99.99,,2016-02-09 12:45:00,
2016-02-09 05:51:00,16.0,14.0,-100.00,East,82,1.0,-999.0,92,-99.99,,,-99.99,,2016-02-09 12:51:00,
2016-02-09 06:13:00,16.0,14.0,-100.00,East,82,1.0,3.0,92,-99.99,,,-99.99,,2016-02-09 13:13:00,
2016-02-09 06:23:00,16.0,14.0,-100.00,East,82,1.0,3.0,92,-99.99,,,-99.99,,2016-02-09 13:23:00,
2016-02-09 06:34:00,16.0,14.0,-100.00,East,82,1.0,3.0,92,-99.99,,,-99.99,,2016-02-09 13:34:00,